Time,TemperatureF,DewpointF,PressureIn,WindDirection,WindDirectionDegrees,WindSpeedMPH,WindSpeedGustMPH,Humidity,HourlyPrecipIn,Conditions,Clouds,dailyrainin,SoftwareType,DateUTC
2013-04-17 00:00:00,41.2,31.8,30.79,WSW,247,0.0,1.3,69,0.00,,,0.00,WUHU21623XXSP,2013-04-17 04:00:00,
2013-04-17 00:01:00,41.2,31.8,30.79,WSW,247,0.0,1.3,69,0.00,,,0.00,WUHU21623XXSP,2013-04-17 04:01:00,
2013-04-17 00:06:00,41.0,32.0,30.78,WSW,247,0.0,1.6,70,0.00,,,0.00,WUHU21623XXSP,2013-04-17 04:06:00,
2013-04-17 00:11:00,40.8,31.8,30.78,WSW,247,0.0,1.6,70,0.00,,,0.00,WUHU21623XXSP,2013-04-17 04:11:00,
2013-04-17 00:16:00,40.6,32.0,30.79,WSW,247,0.0,0.0,71,0.00,,,0.00,WUHU21623XXSP,2013-04-17 04:16:00,
2013-04-17 00:22:00,40.6,32.3,30.78,WSW,247,0.0,0.0,72,0.00,,,0.00,WUHU21623XXSP,2013-04-17 04:22:00,
2013-04-17 00:27:00,40.3,31.9,30.79,WSW,247,1.6,2.0,72,0.00,,,0.00,WUHU21623XXSP,2013-04-17 04:27:00,
2013-04-17 00:32:00,40.3,31.9,30.79,WSW,247,0.0,2.0,72,0.00,,,0.00,WUHU21623XXSP,2013-04-17 04:32:00,
2013-04-17 00:37:00,40.1,31.8,30.79,WSW,247,0.0,0.0,72,0.00,,,0.00,WUHU21623XXSP,2013-04-17 04:37:00,
2013-04-17 00:42:00,40.1,32.1,30.79,WSW,247,0.0,0.0,73,0.00,,,0.00,WUHU21623XXSP,2013-04-17 04:42:00,
2013-04-17 00:47:00,39.9,31.9,30.79,SW,225,0.0,0.0,73,0.00,,,0.00,WUHU21623XXSP,2013-04-17 04:47:00,
2013-04-17 00:52:00,39.9,31.9,30.80,SW,225,0.0,0.0,73,0.00,,,0.00,WUHU21623XXSP,2013-04-17 04:52:00,
2013-04-17 00:57:00,39.9,31.9,30.80,SW,225,0.0,0.0,73,0.00,,,0.00,WUHU21623XXSP,2013-04-17 04:57:00,
2013-04-17 01:02:00,39.7,32.1,30.80,SW,225,0.0,0.0,74,0.00,,,0.00,WUHU21623XXSP,2013-04-17 05:02:00,
2013-04-17 01:07:00,39.6,31.9,30.79,SW,225,0.0,0.0,74,0.00,,,0.00,WUHU21623XXSP,2013-04-17 05:07:00,
2013-04-17 01:12:00,39.4,31.7,30.80,WSW,247,0.0,0.0,74,0.00,,,0.00,WUHU21623XXSP,2013-04-17 05:12:00,
2013-04-17 01:17:00,39.4,31.7,30.80,WSW,247,0.0,0.0,74,0.00,,,0.00,WUHU21623XXSP,2013-04-17 05:17:00,
2013-04-17 01:22:00,39.0,31.7,30.81,WSW,247,0.0,0.0,75,0.00,,,0.00,WUHU21623XXSP,2013-04-17 05:22:00,
2013-04-17 01:27:00,39.0,31.7,30.81,WSW,247,0.0,0.0,75,0.00,,,0.00,WUHU21623XXSP,2013-04-17 05:27:00,
2013-04-17 01:32:00,38.8,31.9,30.80,WSW,247,0.0,0.0,76,0.00,,,0.00,WUHU21623XXSP,2013-04-17 05:32:00,
2013-04-17 01:37:00,38.7,31.4,30.81,WSW,247,0.0,0.0,75,0.00,,,0.00,WUHU21623XXSP,2013-04-17 05:37:00,
2013-04-17 01:42:00,38.5,31.6,30.81,WSW,247,0.0,0.0,76,0.00,,,0.00,WUHU21623XXSP,2013-04-17 05:42:00,
2013-04-17 01:47:00,38.3,31.4,30.82,WSW,247,0.0,0.0,76,0.00,,,0.00,WUHU21623XXSP,2013-04-17 05:47:00,
2013-04-17 01:52:00,38.1,31.2,30.82,WSW,247,0.0,0.0,76,0.00,,,0.00,WUHU21623XXSP,2013-04-17 05:52:00,
2013-04-17 01:57:00,37.9,31.4,30.82,WSW,247,0.0,0.0,77,0.00,,,0.00,WUHU21623XXSP,2013-04-17 05:57:00,
2013-04-17 02:02:00,37.9,31.4,30.82,WSW,247,0.0,0.0,77,0.00,,,0.00,WUHU21623XXSP,2013-04-17 06:02:00,
2013-04-17 02:07:00,37.9,31.4,30.81,WSW,247,0.0,0.0,77,0.00,,,0.00,WUHU21623XXSP,2013-04-17 06:07:00,
2013-04-17 02:12:00,38.1,31.9,30.81,WSW,247,0.0,0.0,78,0.00,,,0.00,WUHU21623XXSP,2013-04-17 06:12:00,
2013-04-17 02:17:00,38.3,32.1,30.81,WSW,247,0.0,0.0,78,0.00,,,0.00,WUHU21623XXSP,2013-04-17 06:17:00,
2013-04-17 02:22:00,38.5,32.2,30.82,WSW,247,0.0,0.0,78,0.00,,,0.00,WUHU21623XXSP,2013-04-17 06:22:00,
2013-04-17 02:27:00,38.5,32.2,30.82,WSW,247,0.0,0.0,78,0.00,,,0.00,WUHU21623XXSP,2013-04-17 06:27:00,
2013-04-17 02:32:00,38.7,32.4,30.82,WSW,247,0.0,0.0,78,0.00,,,0.00,WUHU21623XXSP,2013-04-17 06:32:00,
2013-04-17 02:37:00,38.8,32.6,30.82,WSW,247,0.0,0.0,77,0.00,,,0.00,WUHU21623XXSP,2013-04-17 06:37:00,
2013-04-17 02:42:00,38.8,32.2,30.83,WSW,247,0.0,0.0,77,0.00,,,0.00,WUHU21623XXSP,2013-04-17 06:42:00,
2013-04-17 02:47:00,38.8,32.2,30.83,WSW,247,0.0,0.0,77,0.00,,,0.00,WUHU21623XXSP,2013-04-17 06:47:00,
2013-04-17 02:52:00,39.0,32.4,30.83,WSW,247,0.0,0.0,77,0.00,,,0.00,WUHU21623XXSP,2013-04-17 06:52:00,
2013-04-17 02:57:00,39.0,32.4,30.83,WSW,247,0.0,0.0,77,0.00,,,0.00,WUHU21623XXSP,2013-04-17 06:57:00,
2013-04-17 03:02:00,39.0,32.4,30.83,WSW,247,0.0,0.0,77,0.00,,,0.00,WUHU21623XXSP,2013-04-17 07:02:00,
2013-04-17 03:07:00,39.0,32.4,30.83,SW,225,0.0,0.0,77,0.00,,,0.00,WUHU21623XXSP,2013-04-17 07:07:00,
2013-04-17 03:12:00,39.0,32.4,30.83,WSW,247,0.0,0.0,77,0.00,,,0.00,WUHU21623XXSP,2013-04-17 07:12:00,
2013-04-17 03:17:00,39.0,32.4,30.84,WSW,247,0.0,0.0,77,0.00,,,0.00,WUHU21623XXSP,2013-04-17 07:17:00,
2013-04-17 03:22:00,39.0,32.8,30.84,SW,225,0.0,0.0,78,0.00,,,0.00,WUHU21623XXSP,2013-04-17 07:22:00,
2013-04-17 03:27:00,39.0,32.8,30.85,SW,225,0.0,0.0,78,0.00,,,0.00,WUHU21623XXSP,2013-04-17 07:27:00,
2013-04-17 03:32:00,39.0,32.8,30.85,SW,225,0.0,0.0,78,0.00,,,0.00,WUHU21623XXSP,2013-04-17 07:32:00,
2013-04-17 03:37:00,39.0,32.8,30.84,WSW,247,0.0,0.0,78,0.00,,,0.00,WUHU21623XXSP,2013-04-17 07:37:00,
2013-04-17 03:42:00,39.0,32.8,30.85,WSW,247,0.0,0.0,78,0.00,,,0.00,WUHU21623XXSP,2013-04-17 07:42:00,
2013-04-17 03:48:00,39.0,32.8,30.85,WSW,247,0.0,0.0,78,0.00,,,0.00,WUHU21623XXSP,2013-04-17 07:48:00,
2013-04-17 03:53:00,39.0,32.8,30.85,WSW,247,0.0,0.0,78,0.00,,,0.00,WUHU21623XXSP,2013-04-17 07:53:00,
2013-04-17 03:58:00,39.0,32.8,30.85,WSW,247,0.0,0.0,78,0.00,,,0.00,WUHU21623XXSP,2013-04-17 07:58:00,
2013-04-17 04:03:00,39.0,32.8,30.85,WSW,247,0.0,0.0,78,0.00,,,0.00,WUHU21623XXSP,2013-04-17 08:03:00,
2013-04-17 04:08:00,39.0,32.8,30.85,WSW,247,0.0,0.0,78,0.00,,,0.00,WUHU21623XXSP,2013-04-17 08:08:00,
2013-04-17 04:13:00,39.0,32.8,30.85,WSW,247,0.0,0.0,78,0.00,,,0.00,WUHU21623XXSP,2013-04-17 08:13:00,
2013-04-17 04:18:00,39.0,33.1,30.85,WSW,247,0.0,0.0,79,0.00,,,0.00,WUHU21623XXSP,2013-04-17 08:18:00,
2013-04-17 04:23:00,39.0,33.1,30.86,WSW,247,0.0,0.0,79,0.00,,,0.00,WUHU21623XXSP,2013-04-17 08:23:00,
2013-04-17 04:28:00,39.0,33.1,30.86,WSW,247,0.0,0.0,79,0.00,,,0.00,WUHU21623XXSP,2013-04-17 08:28:00,
2013-04-17 04:33:00,39.0,33.1,30.86,WSW,247,0.0,0.0,79,0.00,,,0.00,WUHU21623XXSP,2013-04-17 08:33:00,
2013-04-17 04:38:00,39.0,32.8,30.86,WSW,247,0.0,0.0,78,0.00,,,0.00,WUHU21623XXSP,2013-04-17 08:38:00,
2013-04-17 04:43:00,39.0,32.8,30.86,WSW,247,0.0,0.0,78,0.00,,,0.00,WUHU21623XXSP,2013-04-17 08:43:00,
2013-04-17 04:48:00,38.8,32.6,30.86,WSW,247,0.0,0.0,78,0.00,,,0.00,WUHU21623XXSP,2013-04-17 08:48:00,
2013-04-17 04:53:00,39.0,33.1,30.87,WSW,247,0.0,0.0,79,0.00,,,0.00,WUHU21623XXSP,2013-04-17 08:53:00,
2013-04-17 04:58:00,38.8,32.9,30.86,WSW,247,0.0,0.0,79,0.00,,,0.00,WUHU21623XXSP,2013-04-17 08:58:00,
2013-04-17 05:03:00,38.8,32.9,30.87,WSW,247,0.0,0.0,79,0.00,,,0.00,WUHU21623XXSP,2013-04-17 09:03:00,
2013-04-17 05:08:00,38.8,32.9,30.87,WSW,247,0.0,0.0,79,0.00,,,0.00,WUHU21623XXSP,2013-04-17 09:08:00,
2013-04-17 05:13:00,38.8,32.9,30.87,WSW,247,0.0,0.0,79,0.00,,,0.00,WUHU21623XXSP,2013-04-17 09:13:00,
2013-04-17 05:18:00,38.8,32.9,30.87,WSW,247,0.0,0.0,79,0.00,,,0.00,WUHU21623XXSP,2013-04-17 09:18:00,
2013-04-17 05:23:00,38.8,32.9,30.86,WSW,247,0.0,0.0,79,0.00,,,0.00,WUHU21623XXSP,2013-04-17 09:23:00,
2013-04-17 05:28:00,38.8,32.9,30.86,WSW,247,0.0,0.0,79,0.00,,,0.00,WUHU21623XXSP,2013-04-17 09:28:00,
2013-04-17 05:33:00,38.8,32.9,30.87,WSW,247,0.0,0.0,79,0.00,,,0.00,WUHU21623XXSP,2013-04-17 09:33:00,
2013-04-17 05:38:00,38.7,32.7,30.86,WSW,247,0.0,0.0,79,0.00,,,0.00,WUHU21623XXSP,2013-04-17 09:38:00,
2013-04-17 05:43:00,38.7,32.7,30.86,WSW,247,0.0,0.0,79,0.00,,,0.00,WUHU21623XXSP,2013-04-17 09:43:00,
2013-04-17 05:48:00,38.5,32.9,30.86,WSW,247,0.0,0.0,80,0.00,,,0.00,WUHU21623XXSP,2013-04-17 09:48:00,
2013-04-17 05:53:00,38.5,32.9,30.86,WSW,247,0.0,0.0,80,0.00,,,0.00,WUHU21623XXSP,2013-04-17 09:53:00,
2013-04-17 05:58:00,38.5,32.9,30.85,SW,225,0.0,0.0,80,0.00,,,0.00,WUHU21623XXSP,2013-04-17 09:58:00,
2013-04-17 06:03:00,38.3,32.7,30.86,SW,225,0.0,0.0,80,0.00,,,0.00,WUHU21623XXSP,2013-04-17 10:03:00,
2013-04-17 06:08:00,38.3,32.7,30.85,SW,225,0.0,0.0,80,0.00,,,0.00,WUHU21623XXSP,2013-04-17 10:08:00,
2013-04-17 06:13:00,37.9,32.4,30.86,WSW,247,0.0,0.0,80,0.00,,,0.00,WUHU21623XXSP,2013-04-17 10:13:00,
2013-04-17 06:18:00,37.9,32.4,30.85,WSW,247,0.0,0.0,80,0.00,,,0.00,WUHU21623XXSP,2013-04-17 10:18:00,
2013-04-17 06:23:00,37.6,32.0,30.85,WSW,247,0.0,0.0,80,0.00,,,0.00,WUHU21623XXSP,2013-04-17 10:23:00,
2013-04-17 06:28:00,37.2,31.6,30.85,WSW,247,0.0,0.0,80,0.00,,,0.00,WUHU21623XXSP,2013-04-17 10:28:00,
2013-04-17 06:33:00,37.2,31.9,30.85,WSW,247,0.0,0.0,81,0.00,,,0.00,WUHU21623XXSP,2013-04-17 10:33:00,
2013-04-17 06:38:00,36.9,31.6,30.85,WSW,247,0.0,0.0,81,0.00,,,0.00,WUHU21623XXSP,2013-04-17 10:38:00,
2013-04-17 06:43:00,36.7,31.4,30.86,WSW,247,0.0,0.0,81,0.00,,,0.00,WUHU21623XXSP,2013-04-17 10:43:00,
2013-04-17 06:49:00,36.7,31.4,30.86,WSW,247,0.0,0.0,81,0.00,,,0.00,WUHU21623XXSP,2013-04-17 10:49:00,
2013-04-17 06:54:00,36.3,31.0,30.87,WSW,247,0.0,0.0,81,0.00,,,0.00,WUHU21623XXSP,2013-04-17 10:54:00,
2013-04-17 06:59:00,36.1,30.8,30.87,WSW,247,0.0,0.0,81,0.00,,,0.00,WUHU21623XXSP,2013-04-17 10:59:00,
2013-04-17 07:04:00,35.8,30.5,30.86,WSW,247,0.0,0.0,81,0.00,,,0.00,WUHU21623XXSP,2013-04-17 11:04:00,
2013-04-17 07:09:00,35.8,30.5,30.86,WSW,247,0.0,0.0,81,0.00,,,0.00,WUHU21623XXSP,2013-04-17 11:09:00,
2013-04-17 07:14:00,35.8,30.8,30.86,WSW,247,0.0,0.0,82,0.00,,,0.00,WUHU21623XXSP,2013-04-17 11:14:00,
2013-04-17 07:19:00,35.8,30.8,30.86,WSW,247,0.0,0.0,82,0.00,,,0.00,WUHU21623XXSP,2013-04-17 11:19:00,
2013-04-17 07:24:00,35.8,30.8,30.86,WSW,247,0.0,0.0,82,0.00,,,0.00,WUHU21623XXSP,2013-04-17 11:24:00,
2013-04-17 07:29:00,35.4,30.4,30.85,WSW,247,0.0,0.0,82,0.00,,,0.00,WUHU21623XXSP,2013-04-17 11:29:00,
2013-04-17 07:34:00,35.8,31.1,30.86,WSW,247,0.0,0.0,83,0.00,,,0.00,WUHU21623XXSP,2013-04-17 11:34:00,
2013-04-17 07:39:00,36.0,31.2,30.86,WSW,247,0.0,0.0,83,0.00,,,0.00,WUHU21623XXSP,2013-04-17 11:39:00,
2013-04-17 07:44:00,36.1,31.4,30.86,WSW,247,0.0,0.0,83,0.00,,,0.00,WUHU21623XXSP,2013-04-17 11:44:00,
2013-04-17 07:49:00,36.3,31.9,30.87,WSW,247,0.0,0.0,84,0.00,,,0.00,WUHU21623XXSP,2013-04-17 11:49:00,
2013-04-17 07:54:00,36.3,31.9,30.86,WSW,247,0.0,0.0,84,0.00,,,0.00,WUHU21623XXSP,2013-04-17 11:54:00,
2013-04-17 07:59:00,36.7,32.3,30.87,SW,225,0.0,2.2,84,0.00,,,0.00,WUHU21623XXSP,2013-04-17 11:59:00,
2013-04-17 08:04:00,36.9,32.4,30.86,WSW,247,0.0,2.2,84,0.00,,,0.00,WUHU21623XXSP,2013-04-17 12:04:00,
2013-04-17 08:09:00,37.0,32.3,30.86,SSW,202,0.0,0.0,83,0.00,,,0.00,WUHU21623XXSP,2013-04-17 12:09:00,
2013-04-17 08:14:00,37.2,32.2,30.86,SW,225,0.0,0.0,82,0.00,,,0.00,WUHU21623XXSP,2013-04-17 12:14:00,
2013-04-17 08:19:00,37.2,31.9,30.87,WSW,247,0.0,0.0,81,0.00,,,0.00,WUHU21623XXSP,2013-04-17 12:19:00,
2013-04-17 08:24:00,37.6,32.3,30.86,WSW,247,0.0,0.0,81,0.00,,,0.00,WUHU21623XXSP,2013-04-17 12:24:00,
2013-04-17 08:29:00,37.8,32.2,30.86,SW,225,0.0,1.6,80,0.00,,,0.00,WUHU21623XXSP,2013-04-17 12:29:00,
2013-04-17 08:34:00,37.9,32.0,30.86,SW,225,0.0,1.8,79,0.00,,,0.00,WUHU21623XXSP,2013-04-17 12:34:00,
2013-04-17 08:39:00,37.9,32.0,30.87,WSW,247,0.0,1.8,79,0.00,,,0.00,WUHU21623XXSP,2013-04-17 12:39:00,
2013-04-17 08:44:00,38.1,32.2,30.88,SW,225,3.8,3.8,79,0.00,,,0.00,WUHU21623XXSP,2013-04-17 12:44:00,
2013-04-17 08:49:00,38.3,32.4,30.87,SW,225,0.0,3.8,79,0.00,,,0.00,WUHU21623XXSP,2013-04-17 12:49:00,
2013-04-17 08:54:00,38.5,32.6,30.87,East,90,0.0,0.0,79,0.00,,,0.00,WUHU21623XXSP,2013-04-17 12:54:00,
2013-04-17 08:59:00,38.8,32.9,30.86,WSW,247,0.0,0.0,79,0.00,,,0.00,WUHU21623XXSP,2013-04-17 12:59:00,
2013-04-17 09:04:00,39.0,33.1,30.87,SSE,157,0.0,0.0,79,0.00,,,0.00,WUHU21623XXSP,2013-04-17 13:04:00,
2013-04-17 09:09:00,39.2,32.9,30.87,SSE,157,0.0,0.0,78,0.00,,,0.00,WUHU21623XXSP,2013-04-17 13:09:00,
2013-04-17 09:14:00,39.4,33.1,30.86,SW,225,0.0,0.0,78,0.00,,,0.00,WUHU21623XXSP,2013-04-17 13:14:00,
2013-04-17 09:19:00,39.6,33.1,30.87,NNE,22,0.0,0.0,78,0.00,,,0.00,WUHU21623XXSP,2013-04-17 13:19:00,
2013-04-17 09:30:00,39.7,33.4,30.87,WSW,247,3.1,3.1,78,0.00,,,0.00,WUHU21623XXSP,2013-04-17 13:30:00,
2013-04-17 09:35:00,40.6,33.9,30.87,WSW,247,2.2,2.2,77,0.00,,,0.00,WUHU21623XXSP,2013-04-17 13:35:00,
2013-04-17 09:40:00,40.8,34.1,30.87,SW,225,0.0,2.2,77,0.00,,,0.00,WUHU21623XXSP,2013-04-17 13:40:00,
2013-04-17 09:45:00,40.8,33.8,30.87,SW,225,3.4,3.4,76,0.00,,,0.00,WUHU21623XXSP,2013-04-17 13:45:00,
2013-04-17 09:50:00,41.2,34.1,30.85,WSW,247,0.0,3.4,76,0.00,,,0.00,WUHU21623XXSP,2013-04-17 13:50:00,
2013-04-17 09:55:00,41.5,34.5,30.85,SW,225,2.0,2.0,76,0.00,,,0.00,WUHU21623XXSP,2013-04-17 13:55:00,
2013-04-17 10:00:00,41.9,34.5,30.85,WSW,247,2.5,2.5,75,0.00,,,0.00,WUHU21623XXSP,2013-04-17 14:00:00,
2013-04-17 10:05:00,42.1,34.7,30.85,SW,225,0.0,2.5,75,0.00,,,0.00,WUHU21623XXSP,2013-04-17 14:05:00,
2013-04-17 10:10:00,41.9,34.7,30.85,WSW,247,3.8,3.8,75,0.00,,,0.00,WUHU21623XXSP,2013-04-17 14:10:00,
2013-04-17 10:15:00,41.7,34.3,30.85,SW,225,4.0,4.0,75,0.00,,,0.00,WUHU21623XXSP,2013-04-17 14:15:00,
2013-04-17 10:20:00,41.5,34.2,30.85,SW,225,0.7,4.3,75,0.00,,,0.00,WUHU21623XXSP,2013-04-17 14:20:00,
2013-04-17 10:25:00,41.7,34.3,30.85,SSW,202,0.0,4.3,75,0.00,,,0.00,WUHU21623XXSP,2013-04-17 14:25:00,
2013-04-17 10:30:00,42.1,34.7,30.85,SW,225,0.0,3.6,75,0.00,,,0.00,WUHU21623XXSP,2013-04-17 14:30:00,
2013-04-17 10:35:00,42.3,34.9,30.85,WSW,247,3.6,3.6,75,0.00,,,0.00,WUHU21623XXSP,2013-04-17 14:35:00,
2013-04-17 10:40:00,42.1,34.7,30.85,South,180,0.0,3.6,75,0.00,,,0.00,WUHU21623XXSP,2013-04-17 14:40:00,
2013-04-17 10:45:00,42.4,34.9,30.85,SW,225,0.0,0.0,75,0.00,,,0.00,WUHU21623XXSP,2013-04-17 14:45:00,
2013-04-17 10:50:00,42.6,35.2,30.86,NNW,337,0.0,0.0,75,0.00,,,0.00,WUHU21623XXSP,2013-04-17 14:50:00,
2013-04-17 10:55:00,43.0,35.6,30.86,WSW,247,1.1,2.5,75,0.00,,,0.00,WUHU21623XXSP,2013-04-17 14:55:00,
2013-04-17 11:00:00,43.3,35.6,30.87,West,270,1.3,2.5,74,0.00,,,0.00,WUHU21623XXSP,2013-04-17 15:00:00,
2013-04-17 11:05:00,43.5,35.8,30.87,West,270,1.3,1.3,74,0.00,,,0.00,WUHU21623XXSP,2013-04-17 15:05:00,
2013-04-17 11:10:00,43.7,35.9,30.86,SSW,202,2.9,2.9,74,0.00,,,0.00,WUHU21623XXSP,2013-04-17 15:10:00,
2013-04-17 11:15:00,43.5,35.8,30.87,WSW,247,0.9,2.9,74,0.00,,,0.00,WUHU21623XXSP,2013-04-17 15:15:00,
2013-04-17 11:20:00,43.3,35.6,30.86,WSW,247,0.0,1.8,74,0.00,,,0.00,WUHU21623XXSP,2013-04-17 15:20:00,
2013-04-17 11:25:00,43.5,35.8,30.86,WSW,247,4.3,4.3,74,0.00,,,0.00,WUHU21623XXSP,2013-04-17 15:25:00,
2013-04-17 11:31:00,43.5,35.4,30.87,WSW,247,2.2,4.3,73,0.00,,,0.00,WUHU21623XXSP,2013-04-17 15:31:00,
2013-04-17 11:36:00,43.3,35.4,30.87,WSW,247,3.4,4.3,73,0.00,,,0.00,WUHU21623XXSP,2013-04-17 15:36:00,
2013-04-17 11:41:00,43.2,35.1,30.86,WSW,247,3.1,4.5,73,0.00,,,0.00,WUHU21623XXSP,2013-04-17 15:41:00,
2013-04-17 11:46:00,43.3,35.6,30.86,WSW,247,0.0,4.5,74,0.00,,,0.00,WUHU21623XXSP,2013-04-17 15:46:00,
2013-04-17 11:51:00,43.7,35.6,30.86,ESE,112,0.0,1.8,73,0.00,,,0.00,WUHU21623XXSP,2013-04-17 15:51:00,
2013-04-17 11:56:00,43.9,35.8,30.86,WSW,247,1.6,1.8,73,0.00,,,0.00,WUHU21623XXSP,2013-04-17 15:56:00,
2013-04-17 12:01:00,44.4,36.3,30.85,WSW,247,2.5,3.6,74,0.00,,,0.00,WUHU21623XXSP,2013-04-17 16:01:00,
2013-04-17 12:06:00,44.4,36.3,30.85,WSW,247,4.9,4.9,73,0.00,,,0.00,WUHU21623XXSP,2013-04-17 16:06:00,
2013-04-17 12:11:00,44.4,36.3,30.85,WSW,247,1.6,4.9,73,0.00,,,0.00,WUHU21623XXSP,2013-04-17 16:11:00,
2013-04-17 12:16:00,44.4,36.3,30.85,WSW,247,5.1,5.1,73,0.00,,,0.00,WUHU21623XXSP,2013-04-17 16:16:00,
2013-04-17 12:21:00,44.4,36.3,30.85,SW,225,0.0,5.1,73,0.00,,,0.00,WUHU21623XXSP,2013-04-17 16:21:00,
2013-04-17 12:26:00,44.4,36.3,30.84,WNW,292,0.0,0.0,73,0.00,,,0.00,WUHU21623XXSP,2013-04-17 16:26:00,
2013-04-17 12:31:00,44.6,36.4,30.84,WSW,247,1.6,1.6,73,0.00,,,0.00,WUHU21623XXSP,2013-04-17 16:31:00,
2013-04-17 12:36:00,44.6,36.4,30.84,WSW,247,2.9,2.9,73,0.00,,,0.00,WUHU21623XXSP,2013-04-17 16:36:00,
2013-04-17 12:41:00,44.6,36.4,30.84,WSW,247,2.9,3.6,73,0.00,,,0.00,WUHU21623XXSP,2013-04-17 16:41:00,
2013-04-17 12:46:00,44.6,36.4,30.84,NE,45,0.0,3.6,73,0.00,,,0.00,WUHU21623XXSP,2013-04-17 16:46:00,
2013-04-17 12:51:00,45.0,36.6,30.84,WSW,247,3.6,3.6,73,0.00,,,0.00,WUHU21623XXSP,2013-04-17 16:51:00,
2013-04-17 12:56:00,45.7,37.2,30.83,WSW,247,6.0,6.0,72,0.00,,,0.00,WUHU21623XXSP,2013-04-17 16:56:00,
2013-04-17 13:01:00,45.9,36.8,30.83,WSW,247,2.5,6.0,72,0.00,,,0.00,WUHU21623XXSP,2013-04-17 17:01:00,
2013-04-17 13:06:00,46.2,37.7,30.84,WSW,247,0.0,3.1,72,0.00,,,0.00,WUHU21623XXSP,2013-04-17 17:06:00,
2013-04-17 13:11:00,47.1,37.9,30.83,SW,225,0.0,3.1,70,0.00,,,0.00,WUHU21623XXSP,2013-04-17 17:11:00,
2013-04-17 13:16:00,47.3,37.3,30.84,WSW,247,0.9,2.5,68,0.00,,,0.00,WUHU21623XXSP,2013-04-17 17:16:00,
2013-04-17 13:22:00,47.5,37.0,30.84,WSW,247,2.0,2.0,67,0.00,,,0.00,WUHU21623XXSP,2013-04-17 17:22:00,
2013-04-17 13:27:00,48.0,37.9,30.84,SW,225,0.0,2.0,68,0.00,,,0.00,WUHU21623XXSP,2013-04-17 17:27:00,
2013-04-17 13:32:00,48.0,37.5,30.85,SW,225,2.7,2.7,67,0.00,,,0.00,WUHU21623XXSP,2013-04-17 17:32:00,
2013-04-17 13:37:00,48.0,37.5,30.84,WSW,247,3.1,3.1,67,0.00,,,0.00,WUHU21623XXSP,2013-04-17 17:37:00,
2013-04-17 13:42:00,48.0,37.5,30.84,WSW,247,3.8,3.8,67,0.00,,,0.00,WUHU21623XXSP,2013-04-17 17:42:00,
2013-04-17 13:47:00,48.0,37.1,30.83,West,270,0.0,3.8,66,0.00,,,0.00,WUHU21623XXSP,2013-04-17 17:47:00,
2013-04-17 13:52:00,48.4,37.9,30.82,WSW,247,3.1,3.1,67,0.00,,,0.00,WUHU21623XXSP,2013-04-17 17:52:00,
2013-04-17 13:57:00,48.2,37.7,30.81,WSW,247,6.7,6.7,67,0.00,,,0.00,WUHU21623XXSP,2013-04-17 17:57:00,
2013-04-17 14:02:00,48.0,37.5,30.81,SSW,202,0.0,6.7,67,0.00,,,0.00,WUHU21623XXSP,2013-04-17 18:02:00,
2013-04-17 14:07:00,47.8,37.4,30.81,WSW,247,0.0,4.5,67,0.00,,,0.00,WUHU21623XXSP,2013-04-17 18:07:00,
2013-04-17 14:12:00,47.7,37.6,30.80,WSW,247,0.0,4.5,68,0.00,,,0.00,WUHU21623XXSP,2013-04-17 18:12:00,
2013-04-17 14:17:00,47.7,38.0,30.79,WSW,247,2.2,2.2,69,0.00,,,0.00,WUHU21623XXSP,2013-04-17 18:17:00,
2013-04-17 14:22:00,47.5,37.4,30.79,WSW,247,2.2,2.2,69,0.00,,,0.00,WUHU21623XXSP,2013-04-17 18:22:00,
2013-04-17 14:27:00,47.3,37.6,30.79,WSW,247,5.8,5.8,69,0.00,,,0.00,WUHU21623XXSP,2013-04-17 18:27:00,
2013-04-17 14:32:00,46.9,37.5,30.79,WSW,247,5.8,5.8,69,0.00,,,0.00,WUHU21623XXSP,2013-04-17 18:32:00,
2013-04-17 14:37:00,46.2,37.0,30.74,West,270,0.7,5.8,70,0.00,,,0.00,WUHU21623XXSP,2013-04-17 18:37:00,
2013-04-17 14:42:00,45.7,36.8,30.72,South,180,0.0,5.6,71,0.00,,,0.00,WUHU21623XXSP,2013-04-17 18:42:00,
2013-04-17 14:47:00,45.1,37.0,30.72,SSW,202,0.0,5.6,73,0.00,,,0.00,WUHU21623XXSP,2013-04-17 18:47:00,
2013-04-17 14:52:00,44.8,37.3,30.74,SW,225,0.0,2.2,75,0.00,,,0.00,WUHU21623XXSP,2013-04-17 18:52:00,
2013-04-17 14:57:00,44.4,37.0,30.74,SW,225,1.8,2.2,75,0.00,,,0.00,WUHU21623XXSP,2013-04-17 18:57:00,
2013-04-17 15:02:00,44.4,37.3,30.75,WSW,247,4.0,4.0,76,0.00,,,0.00,WUHU21623XXSP,2013-04-17 19:02:00,
2013-04-17 15:07:00,44.4,37.0,30.77,WSW,247,1.3,4.0,75,0.00,,,0.00,WUHU21623XXSP,2013-04-17 19:07:00,
2013-04-17 15:12:00,44.4,37.0,30.77,WSW,247,2.9,2.9,75,0.00,,,0.00,WUHU21623XXSP,2013-04-17 19:12:00,
2013-04-17 15:17:00,44.2,36.4,30.77,WSW,247,4.5,4.5,74,0.00,,,0.00,WUHU21623XXSP,2013-04-17 19:17:00,
2013-04-17 15:22:00,43.9,36.1,30.78,SW,225,2.5,4.5,74,0.00,,,0.00,WUHU21623XXSP,2013-04-17 19:22:00,
2013-04-17 15:27:00,43.9,36.4,30.77,WSW,247,2.5,2.5,75,0.00,,,0.00,WUHU21623XXSP,2013-04-17 19:27:00,
2013-04-17 15:32:00,43.9,36.4,30.78,SSE,157,0.0,2.5,75,0.00,,,0.00,WUHU21623XXSP,2013-04-17 19:32:00,
2013-04-17 15:37:00,43.9,36.4,30.78,WSW,247,1.8,2.5,75,0.00,,,0.00,WUHU21623XXSP,2013-04-17 19:37:00,
2013-04-17 15:42:00,44.1,36.6,30.78,WSW,247,2.5,2.5,75,0.00,,,0.00,WUHU21623XXSP,2013-04-17 19:42:00,
2013-04-17 15:47:00,44.1,37.0,30.78,WSW,247,2.9,2.9,76,0.00,,,0.00,WUHU21623XXSP,2013-04-17 19:47:00,
2013-04-17 15:52:00,44.2,37.1,30.77,WSW,247,1.8,3.6,76,0.00,,,0.00,WUHU21623XXSP,2013-04-17 19:52:00,
2013-04-17 15:57:00,44.1,37.3,30.76,WSW,247,3.8,3.8,77,0.00,,,0.00,WUHU21623XXSP,2013-04-17 19:57:00,
2013-04-17 16:02:00,44.1,37.3,30.75,WSW,247,2.9,3.8,77,0.00,,,0.00,WUHU21623XXSP,2013-04-17 20:02:00,
2013-04-17 16:07:00,44.1,37.0,30.75,WSW,247,0.9,2.9,76,0.00,,,0.00,WUHU21623XXSP,2013-04-17 20:07:00,
2013-04-17 16:12:00,44.2,37.1,30.75,WSW,247,0.0,1.6,76,0.00,,,0.00,WUHU21623XXSP,2013-04-17 20:12:00,
2013-04-17 16:17:00,44.2,37.1,30.74,WSW,247,3.8,3.8,76,0.00,,,0.00,WUHU21623XXSP,2013-04-17 20:17:00,
2013-04-17 16:22:00,44.1,37.0,30.74,WSW,247,3.4,3.8,76,0.00,,,0.00,WUHU21623XXSP,2013-04-17 20:22:00,
2013-04-17 16:27:00,44.1,37.0,30.74,WSW,247,2.7,3.4,76,0.00,,,0.00,WUHU21623XXSP,2013-04-17 20:27:00,
2013-04-17 16:32:00,43.7,36.6,30.74,WSW,247,2.2,4.0,76,0.00,,,0.00,WUHU21623XXSP,2013-04-17 20:32:00,
2013-04-17 16:37:00,43.5,36.4,30.73,WSW,247,2.9,4.0,76,0.00,,,0.00,WUHU21623XXSP,2013-04-17 20:37:00,
2013-04-17 16:42:00,43.3,36.6,30.72,WSW,247,0.0,2.9,77,0.00,,,0.00,WUHU21623XXSP,2013-04-17 20:42:00,
2013-04-17 16:47:00,43.0,36.2,30.72,WSW,247,3.8,6.9,77,0.00,,,0.00,WUHU21623XXSP,2013-04-17 20:47:00,
2013-04-17 16:52:00,43.0,36.2,30.72,SW,225,2.0,6.9,77,0.00,,,0.00,WUHU21623XXSP,2013-04-17 20:52:00,
2013-04-17 16:57:00,42.8,36.1,30.72,WSW,247,0.0,5.4,77,0.00,,,0.00,WUHU21623XXSP,2013-04-17 20:57:00,
2013-04-17 17:02:00,42.6,36.2,30.73,East,90,0.0,5.4,78,0.00,,,0.00,WUHU21623XXSP,2013-04-17 21:02:00,
2013-04-17 17:07:00,42.4,36.4,30.72,SSW,202,2.9,2.9,79,0.00,,,0.00,WUHU21623XXSP,2013-04-17 21:07:00,
2013-04-17 17:12:00,42.1,36.3,30.71,WSW,247,3.1,3.1,80,0.00,,,0.00,WUHU21623XXSP,2013-04-17 21:12:00,
2013-04-17 17:17:00,41.7,36.3,30.72,WSW,247,1.6,3.1,81,0.00,,,0.00,WUHU21623XXSP,2013-04-17 21:17:00,
2013-04-17 17:22:00,41.5,36.4,30.71,WSW,247,2.9,3.8,82,0.00,,,0.00,WUHU21623XXSP,2013-04-17 21:22:00,
2013-04-17 17:27:00,41.4,36.2,30.71,WSW,247,2.5,3.8,82,0.00,,,0.00,WUHU21623XXSP,2013-04-17 21:27:00,
2013-04-17 17:32:00,41.0,36.2,30.72,WSW,247,4.7,4.7,83,0.00,,,0.00,WUHU21623XXSP,2013-04-17 21:32:00,
2013-04-17 17:37:00,40.8,36.0,30.72,WSW,247,2.5,4.7,83,0.00,,,0.00,WUHU21623XXSP,2013-04-17 21:37:00,
2013-04-17 17:42:00,40.6,36.1,30.74,SW,225,0.0,2.5,84,0.00,,,0.00,WUHU21623XXSP,2013-04-17 21:42:00,
2013-04-17 17:47:00,40.3,35.8,30.74,WSW,247,0.0,3.1,84,0.00,,,0.00,WUHU21623XXSP,2013-04-17 21:47:00,
2013-04-17 17:53:00,40.1,35.9,30.74,WSW,247,4.7,4.7,85,0.00,,,0.00,WUHU21623XXSP,2013-04-17 21:53:00,
2013-04-17 17:58:00,39.9,35.7,30.74,WSW,247,0.0,4.7,85,0.00,,,0.00,WUHU21623XXSP,2013-04-17 21:58:00,
2013-04-17 18:03:00,39.7,35.9,30.72,WSW,247,2.9,4.0,86,0.00,,,0.00,WUHU21623XXSP,2013-04-17 22:03:00,
2013-04-17 18:08:00,39.7,35.9,30.70,SW,225,3.6,6.3,86,0.00,,,0.00,WUHU21623XXSP,2013-04-17 22:08:00,
2013-04-17 18:13:00,39.4,35.8,30.68,WNW,292,9.6,9.6,87,0.00,,,0.00,WUHU21623XXSP,2013-04-17 22:13:00,
2013-04-17 18:18:00,39.0,35.5,30.64,West,270,3.1,9.6,87,0.00,,,0.00,WUHU21623XXSP,2013-04-17 22:18:00,
2013-04-17 18:23:00,39.0,35.5,30.65,West,270,6.7,7.4,87,0.00,,,0.00,WUHU21623XXSP,2013-04-17 22:23:00,
2013-04-17 18:28:00,38.8,35.3,30.65,SW,225,2.2,6.7,87,0.00,,,0.00,WUHU21623XXSP,2013-04-17 22:28:00,
2013-04-17 18:33:00,38.5,34.9,30.69,WSW,247,2.5,3.8,87,0.00,,,0.00,WUHU21623XXSP,2013-04-17 22:33:00,
2013-04-17 18:38:00,38.5,34.9,30.71,SW,225,7.6,7.6,87,0.00,,,0.00,WUHU21623XXSP,2013-04-17 22:38:00,
2013-04-17 18:43:00,38.3,35.0,30.69,WSW,247,4.3,7.6,88,0.00,,,0.00,WUHU21623XXSP,2013-04-17 22:43:00,
2013-04-17 18:48:00,38.1,34.8,30.70,SW,225,0.0,4.3,88,0.00,,,0.00,WUHU21623XXSP,2013-04-17 22:48:00,
2013-04-17 18:53:00,38.1,34.8,30.71,SW,225,0.0,3.6,88,0.00,,,0.00,WUHU21623XXSP,2013-04-17 22:53:00,
2013-04-17 18:58:00,38.1,34.8,30.72,WSW,247,0.0,0.9,88,0.00,,,0.00,WUHU21623XXSP,2013-04-17 22:58:00,
2013-04-17 19:03:00,38.1,34.8,30.72,WSW,247,3.8,3.8,88,0.00,,,0.00,WUHU21623XXSP,2013-04-17 23:03:00,
2013-04-17 19:08:00,37.9,34.7,30.74,WSW,247,0.0,3.8,88,0.00,,,0.00,WUHU21623XXSP,2013-04-17 23:08:00,
2013-04-17 19:13:00,37.9,34.7,30.71,WSW,247,2.5,2.5,88,0.00,,,0.00,WUHU21623XXSP,2013-04-17 23:13:00,
2013-04-17 19:18:00,37.9,34.7,30.70,SW,225,0.9,2.5,88,0.00,,,0.00,WUHU21623XXSP,2013-04-17 23:18:00,
2013-04-17 19:23:00,37.9,35.0,30.67,SW,225,2.0,2.0,89,0.00,,,0.00,WUHU21623XXSP,2013-04-17 23:23:00,
2013-04-17 19:28:00,37.8,34.8,30.68,WSW,247,0.0,2.0,89,0.00,,,0.00,WUHU21623XXSP,2013-04-17 23:28:00,
2013-04-17 19:33:00,37.9,35.0,30.68,WSW,247,2.0,2.0,89,0.00,,,0.00,WUHU21623XXSP,2013-04-17 23:33:00,
2013-04-17 19:38:00,37.9,35.0,30.69,South,180,0.0,3.4,89,0.00,,,0.00,WUHU21623XXSP,2013-04-17 23:38:00,
2013-04-17 19:43:00,37.8,34.8,30.71,SE,135,0.0,3.4,89,0.00,,,0.00,WUHU21623XXSP,2013-04-17 23:43:00,
2013-04-17 19:48:00,37.8,34.8,30.70,SW,225,0.0,4.0,89,0.00,,,0.00,WUHU21623XXSP,2013-04-17 23:48:00,
2013-04-17 19:53:00,37.8,34.8,30.69,SW,225,0.0,4.0,89,0.00,,,0.00,WUHU21623XXSP,2013-04-17 23:53:00,
2013-04-17 19:58:00,37.9,35.0,30.69,SW,225,0.0,1.6,89,0.00,,,0.00,WUHU21623XXSP,2013-04-17 23:58:00,
2013-04-17 20:03:00,37.8,34.8,30.69,WSW,247,3.8,3.8,89,0.00,,,0.00,WUHU21623XXSP,2013-04-18 00:03:00,
2013-04-17 20:08:00,37.9,35.0,30.68,SSW,202,0.0,3.8,89,0.00,,,0.00,WUHU21623XXSP,2013-04-18 00:08:00,
2013-04-17 20:13:00,37.8,34.8,30.69,SW,225,0.0,3.1,89,0.00,,,0.00,WUHU21623XXSP,2013-04-18 00:13:00,
2013-04-17 20:18:00,37.8,34.8,30.65,SE,135,0.0,2.2,89,0.00,,,0.00,WUHU21623XXSP,2013-04-18 00:18:00,
2013-04-17 20:23:00,37.8,34.8,30.66,SW,225,0.0,2.2,89,0.00,,,0.00,WUHU21623XXSP,2013-04-18 00:23:00,
2013-04-17 20:28:00,37.9,35.2,30.65,WSW,247,3.4,3.4,90,0.00,,,0.00,WUHU21623XXSP,2013-04-18 00:28:00,
2013-04-17 20:33:00,37.8,35.1,30.65,WSW,247,1.3,3.4,90,0.00,,,0.00,WUHU21623XXSP,2013-04-18 00:33:00,
2013-04-17 20:38:00,37.9,35.2,30.65,SW,225,0.0,1.3,90,0.00,,,0.00,WUHU21623XXSP,2013-04-18 00:38:00,
2013-04-17 20:43:00,37.9,35.2,30.64,West,270,2.0,2.5,90,0.00,,,0.00,WUHU21623XXSP,2013-04-18 00:43:00,
2013-04-17 20:48:00,37.9,35.2,30.64,SSW,202,1.3,2.5,90,0.00,,,0.00,WUHU21623XXSP,2013-04-18 00:48:00,
2013-04-17 20:53:00,37.9,35.2,30.63,WSW,247,2.9,2.9,90,0.00,,,0.00,WUHU21623XXSP,2013-04-18 00:53:00,
2013-04-17 20:58:00,37.9,35.2,30.63,SW,225,6.0,6.0,90,0.00,,,0.00,WUHU21623XXSP,2013-04-18 00:58:00,
2013-04-17 21:03:00,37.9,35.2,30.62,WSW,247,3.8,6.0,90,0.00,,,0.00,WUHU21623XXSP,2013-04-18 01:03:00,
2013-04-17 21:08:00,38.1,35.4,30.62,WSW,247,4.0,6.0,90,0.00,,,0.00,WUHU21623XXSP,2013-04-18 01:08:00,
2013-04-17 21:13:00,38.1,35.4,30.62,WSW,247,1.8,4.0,90,0.00,,,0.00,WUHU21623XXSP,2013-04-18 01:13:00,
2013-04-17 21:18:00,38.1,35.4,30.62,ESE,112,0.0,2.9,90,0.00,,,0.00,WUHU21623XXSP,2013-04-18 01:18:00,
2013-04-17 21:23:00,38.3,35.6,30.62,WSW,247,1.6,2.9,90,0.00,,,0.00,WUHU21623XXSP,2013-04-18 01:23:00,
2013-04-17 21:28:00,38.5,35.8,30.62,WSW,247,0.0,1.8,90,0.00,,,0.00,WUHU21623XXSP,2013-04-18 01:28:00,
2013-04-17 21:33:00,38.5,35.8,30.62,SW,225,1.1,1.8,90,0.00,,,0.00,WUHU21623XXSP,2013-04-18 01:33:00,
2013-04-17 21:38:00,38.5,35.8,30.62,WSW,247,3.8,3.8,90,0.00,,,0.00,WUHU21623XXSP,2013-04-18 01:38:00,
2013-04-17 21:43:00,38.8,36.0,30.64,WSW,247,3.4,3.8,90,0.00,,,0.00,WUHU21623XXSP,2013-04-18 01:43:00,
2013-04-17 21:48:00,38.8,36.1,30.63,SW,225,0.0,3.4,90,0.00,,,0.00,WUHU21623XXSP,2013-04-18 01:48:00,
2013-04-17 21:53:00,38.8,36.4,30.63,SW,225,0.0,0.0,91,0.00,,,0.00,WUHU21623XXSP,2013-04-18 01:53:00,
2013-04-17 21:58:00,39.0,36.3,30.61,WSW,247,0.0,0.0,90,0.00,,,0.00,WUHU21623XXSP,2013-04-18 01:58:00,
2013-04-17 22:03:00,39.0,36.3,30.61,West,270,1.6,1.6,90,0.00,,,0.00,WUHU21623XXSP,2013-04-18 02:03:00,
2013-04-17 22:08:00,39.0,36.3,30.60,WSW,247,1.6,1.6,90,0.00,,,0.00,WUHU21623XXSP,2013-04-18 02:08:00,
2013-04-17 22:13:00,39.0,36.3,30.59,South,180,2.2,2.2,90,0.00,,,0.00,WUHU21623XXSP,2013-04-18 02:13:00,
2013-04-17 22:18:00,39.4,36.7,30.59,WSW,247,1.6,2.2,90,0.00,,,0.00,WUHU21623XXSP,2013-04-18 02:18:00,
2013-04-17 22:23:00,39.4,36.7,30.58,SW,225,0.0,2.0,90,0.00,,,0.00,WUHU21623XXSP,2013-04-18 02:23:00,
2013-04-17 22:28:00,39.4,36.7,30.57,SW,225,0.0,2.0,90,0.00,,,0.00,WUHU21623XXSP,2013-04-18 02:28:00,
2013-04-17 22:33:00,39.4,36.7,30.58,SW,225,0.0,2.0,90,0.00,,,0.00,WUHU21623XXSP,2013-04-18 02:33:00,
2013-04-17 22:38:00,39.4,36.7,30.58,WSW,247,0.9,2.5,90,0.00,,,0.00,WUHU21623XXSP,2013-04-18 02:38:00,
2013-04-17 22:43:00,39.4,36.7,30.58,WSW,247,1.3,2.5,90,0.00,,,0.00,WUHU21623XXSP,2013-04-18 02:43:00,
2013-04-17 22:48:00,39.4,36.7,30.58,NNE,22,0.0,1.3,90,0.00,,,0.00,WUHU21623XXSP,2013-04-18 02:48:00,
2013-04-17 22:53:00,39.6,36.9,30.58,NE,45,0.0,0.0,90,0.00,,,0.00,WUHU21623XXSP,2013-04-18 02:53:00,
2013-04-17 22:59:00,39.7,37.0,30.58,SW,225,0.0,0.0,90,0.00,,,0.00,WUHU21623XXSP,2013-04-18 02:59:00,
2013-04-17 23:04:00,39.7,37.0,30.57,SW,225,0.0,0.0,90,0.00,,,0.00,WUHU21623XXSP,2013-04-18 03:04:00,
2013-04-17 23:09:00,39.9,37.2,30.57,WSW,247,0.0,4.0,90,0.00,,,0.00,WUHU21623XXSP,2013-04-18 03:09:00,
2013-04-17 23:14:00,39.9,37.2,30.57,South,180,0.0,4.0,90,0.00,,,0.00,WUHU21623XXSP,2013-04-18 03:14:00,
2013-04-17 23:19:00,40.1,37.4,30.57,WSW,247,0.0,0.0,90,0.00,,,0.00,WUHU21623XXSP,2013-04-18 03:19:00,
2013-04-17 23:24:00,40.3,37.6,30.56,WSW,247,2.0,2.0,90,0.00,,,0.00,WUHU21623XXSP,2013-04-18 03:24:00,
2013-04-17 23:29:00,40.3,37.6,30.56,North,0,0.0,2.0,90,0.00,,,0.00,WUHU21623XXSP,2013-04-18 03:29:00,
2013-04-17 23:34:00,40.5,37.8,30.56,SW,225,0.0,2.0,90,0.00,,,0.00,WUHU21623XXSP,2013-04-18 03:34:00,
2013-04-17 23:39:00,40.6,37.9,30.57,SW,225,0.0,0.0,90,0.00,,,0.00,WUHU21623XXSP,2013-04-18 03:39:00,
2013-04-17 23:44:00,40.6,37.9,30.57,WSW,247,0.0,1.6,90,0.00,,,0.00,WUHU21623XXSP,2013-04-18 03:44:00,
2013-04-17 23:49:00,40.8,38.1,30.57,WSW,247,0.7,2.0,90,0.00,,,0.00,WUHU21623XXSP,2013-04-18 03:49:00,
2013-04-17 23:54:00,40.8,38.1,30.57,WSW,247,0.9,2.0,90,0.00,,,0.00,WUHU21623XXSP,2013-04-18 03:54:00,
2013-04-17 23:59:00,40.8,38.1,30.56,WSW,247,0.0,0.9,90,0.00,,,0.00,WUHU21623XXSP,2013-04-18 03:59:00,